| time (UTC) | temp F | wind direction | speed MPH | gust MPH | rain 1hr in | rain 24hr in | rain mn in | humidity % | barometer mb |
| 20260903052527 | 59 | 254 | 0.0 | 0.0 | 0.00 | 0.00 | 0.00 | 64 | 1005.9 |
| 20260903052027 | 59 | 219 | 0.0 | 0.0 | 0.00 | 0.00 | 0.00 | 61 | 1005.8 |
| 20260903051644 | 60 | 219 | 0.0 | 0.0 | 0.00 | 0.00 | 0.00 | 60 | 1005.8 |
| 20260903051118 | 60 | 219 | 0.0 | 2.0 | 0.00 | 0.00 | 0.00 | 59 | 1005.7 |
| 20260903050545 | 60 | 219 | 0.0 | 3.0 | 0.00 | 0.00 | 0.00 | 59 | 1005.8 |
| 20260903050135 | 60 | 223 | 0.0 | 3.0 | 0.00 | 0.00 | 0.00 | 59 | 1005.7 |
| 20260903045538 | 60 | 227 | 0.0 | 2.0 | 0.00 | 0.00 | 0.00 | 58 | 1005.6 |
| 20260903045042 | 60 | 347 | 0.0 | 3.0 | 0.00 | 0.00 | 0.00 | 58 | 1005.6 |
| 20260903044625 | 60 | 325 | 1.0 | 3.0 | 0.00 | 0.00 | 0.00 | 58 | 1005.6 |
| 20260903044029 | 60 | 314 | 0.0 | 2.0 | 0.00 | 0.00 | 0.00 | 58 | 1005.5 |
| 20260903043546 | 60 | 297 | 0.0 | 3.0 | 0.00 | 0.00 | 0.00 | 57 | 1005.4 |
| 20260903043152 | 60 | 309 | 0.0 | 3.0 | 0.00 | 0.00 | 0.00 | 56 | 1005.4 |
| 20260903042542 | 60 | 352 | 0.0 | 3.0 | 0.00 | 0.00 | 0.00 | 56 | 1005.4 |
| 20260903042031 | 61 | 5 | 1.0 | 5.0 | 0.00 | 0.00 | 0.00 | 56 | 1005.3 |
| 20260903041628 | 61 | 196 | 1.0 | 5.0 | 0.00 | 0.00 | 0.00 | 56 | 1005.3 |
| 20260903041330 | 61 | 36 | 0.0 | 4.0 | 0.00 | 0.00 | 0.00 | 56 | 1005.2 |
| 20260903040530 | 61 | 225 | 2.0 | 6.0 | 0.00 | 0.00 | 0.00 | 57 | 1005.2 |
| 20260903040217 | 61 | 24 | 2.0 | 6.0 | 0.00 | 0.00 | 0.00 | 57 | 1005.1 |
| 20260903035533 | 61 | 148 | 1.0 | 7.0 | 0.00 | 0.00 | 0.00 | 57 | 1005.0 |
| 20260903035024 | 61 | 96 | 1.0 | 7.0 | 0.00 | 0.00 | 0.00 | 57 | 1004.9 |
| 20260903034622 | 61 | 208 | 1.0 | 6.0 | 0.00 | 0.00 | 0.00 | 57 | 1004.9 |
| 20260903034036 | 61 | 134 | 1.0 | 6.0 | 0.00 | 0.00 | 0.00 | 57 | 1004.8 |
| 20260903033527 | 61 | 154 | 1.0 | 5.0 | 0.00 | 0.00 | 0.00 | 57 | 1004.9 |
| 20260903033130 | 62 | 163 | 1.0 | 5.0 | 0.00 | 0.00 | 0.00 | 58 | 1004.8 |
| 20260903032531 | 62 | 192 | 1.0 | 5.0 | 0.00 | 0.00 | 0.00 | 55 | 1004.8 |
| 20260903032048 | 62 | 148 | 0.0 | 3.0 | 0.00 | 0.00 | 0.00 | 54 | 1004.6 |
| 20260903031719 | 63 | 186 | 0.0 | 3.0 | 0.00 | 0.00 | 0.00 | 51 | 1004.4 |
| 20260903031021 | 63 | 268 | 0.0 | 2.0 | 0.00 | 0.00 | 0.00 | 50 | 1004.4 |
| 20260903030531 | 63 | 265 | 0.0 | 5.0 | 0.00 | 0.00 | 0.00 | 50 | 1004.5 |
| 20260903030123 | 64 | 159 | 1.0 | 5.0 | 0.00 | 0.00 | 0.00 | 49 | 1004.5 |
| 20260903025537 | 64 | 47 | 1.0 | 5.0 | 0.00 | 0.00 | 0.00 | 48 | 1004.5 |
| 20260903025045 | 64 | 81 | 1.0 | 5.0 | 0.00 | 0.00 | 0.00 | 48 | 1004.4 |
| 20260903024655 | 64 | 267 | 1.0 | 4.0 | 0.00 | 0.00 | 0.00 | 47 | 1004.4 |
| 20260903024032 | 64 | 155 | 1.0 | 4.0 | 0.00 | 0.00 | 0.00 | 47 | 1004.4 |
| 20260903023524 | 64 | 125 | 0.0 | 3.0 | 0.00 | 0.00 | 0.00 | 47 | 1004.4 |
| 20260903023100 | 65 | 167 | 1.0 | 6.0 | 0.00 | 0.00 | 0.00 | 46 | 1004.3 |
| 20260903022523 | 65 | 145 | 1.0 | 6.0 | 0.00 | 0.00 | 0.00 | 46 | 1004.3 |
| 20260903022028 | 65 | 75 | 0.0 | 4.0 | 0.00 | 0.00 | 0.00 | 45 | 1004.3 |
| 20260903021631 | 65 | 107 | 1.0 | 6.0 | 0.00 | 0.00 | 0.00 | 44 | 1004.2 |
| 20260903021033 | 65 | 39 | 1.0 | 4.0 | 0.00 | 0.00 | 0.00 | 44 | 1004.0 |
| 20260903020527 | 65 | 198 | 0.0 | 6.0 | 0.00 | 0.00 | 0.00 | 43 | 1003.9 |
| 20260903020142 | 66 | 224 | 1.0 | 4.0 | 0.00 | 0.00 | 0.00 | 44 | 1003.9 |
| 20260903015532 | 66 | 32 | 1.0 | 4.0 | 0.00 | 0.00 | 0.00 | 43 | 1004.0 |
| 20260903015029 | 66 | 129 | 0.0 | 3.0 | 0.00 | 0.00 | 0.00 | 43 | 1004.0 |
| 20260903014637 | 66 | 134 | 0.0 | 5.0 | 0.00 | 0.00 | 0.00 | 44 | 1004.0 |
| 20260903014024 | 66 | 157 | 0.0 | 5.0 | 0.00 | 0.00 | 0.00 | 43 | 1003.9 |
| 20260903013528 | 66 | 98 | 1.0 | 9.0 | 0.00 | 0.00 | 0.00 | 43 | 1004.0 |
| 20260903013150 | 66 | 161 | 1.0 | 9.0 | 0.00 | 0.00 | 0.00 | 43 | 1004.0 |
| 20260903012543 | 66 | 169 | 2.0 | 6.0 | 0.00 | 0.00 | 0.00 | 42 | 1004.0 |
| 20260903012046 | 66 | 163 | 1.0 | 6.0 | 0.00 | 0.00 | 0.00 | 42 | 1004.0 |
| 20260903011632 | 67 | 174 | 1.0 | 4.0 | 0.00 | 0.00 | 0.00 | 42 | 1003.9 |
| 20260903011033 | 67 | 166 | 1.0 | 7.0 | 0.00 | 0.00 | 0.00 | 42 | 1004.0 |
| 20260903010537 | 67 | 123 | 1.0 | 7.0 | 0.00 | 0.00 | 0.00 | 42 | 1003.9 |
| 20260903010137 | 67 | 102 | 1.0 | 9.0 | 0.00 | 0.00 | 0.00 | 42 | 1003.8 |
| 20260903005530 | 67 | 53 | 0.0 | 5.0 | 0.00 | 0.00 | 0.00 | 40 | 1003.7 |
| 20260903005025 | 68 | 248 | 1.0 | 5.0 | 0.00 | 0.00 | 0.00 | 39 | 1003.7 |
| 20260903004617 | 68 | 107 | 1.0 | 9.0 | 0.00 | 0.00 | 0.00 | 39 | 1003.6 |
| 20260903004035 | 68 | 148 | 2.0 | 9.0 | 0.00 | 0.00 | 0.00 | 38 | 1003.5 |
| 20260903003532 | 68 | 155 | 1.0 | 9.0 | 0.00 | 0.00 | 0.00 | 38 | 1003.5 |
| 20260903003124 | 68 | 59 | 2.0 | 7.0 | 0.00 | 0.00 | 0.00 | 39 | 1003.4 |
| 20260903002518 | 68 | 157 | 1.0 | 6.0 | 0.00 | 0.00 | 0.00 | 40 | 1003.5 |
| 20260903002025 | 68 | 155 | 3.0 | 5.0 | 0.00 | 0.00 | 0.00 | 39 | 1003.5 |
| 20260903001640 | 68 | 109 | 2.0 | 4.0 | 0.00 | 0.00 | 0.00 | 40 | 1003.4 |
| 20260903001036 | 68 | 93 | 1.0 | 4.0 | 0.00 | 0.00 | 0.00 | 40 | 1003.5 |
| 20260903000544 | 68 | 108 | 1.0 | 7.0 | 0.00 | 0.00 | 0.00 | 40 | 1003.4 |
| 20260903000218 | 68 | 276 | 2.0 | 7.0 | 0.00 | 0.00 | 0.00 | 40 | 1003.4 |
| 20260902235526 | 68 | 325 | 1.0 | 9.0 | 0.00 | 0.00 | 0.00 | 40 | 1003.4 |
| 20260902235033 | 68 | 65 | 2.0 | 12.0 | 0.00 | 0.00 | 0.00 | 39 | 1003.4 |
| 20260902234644 | 69 | 101 | 1.0 | 6.0 | 0.00 | 0.00 | 0.00 | 40 | 1003.4 |
| 20260902234035 | 69 | 53 | 2.0 | 6.0 | 0.00 | 0.00 | 0.00 | 39 | 1003.5 |
| 20260902233545 | 68 | 284 | 1.0 | 6.0 | 0.00 | 0.00 | 0.00 | 39 | 1003.4 |
| 20260902233135 | 68 | 93 | 1.0 | 7.0 | 0.00 | 0.00 | 0.00 | 39 | 1003.4 |
| 20260902232533 | 69 | 46 | 1.0 | 7.0 | 0.00 | 0.00 | 0.00 | 39 | 1003.5 |
| 20260902232032 | 69 | 156 | 0.0 | 6.0 | 0.00 | 0.00 | 0.00 | 41 | 1003.6 |
| 20260902231727 | 69 | 42 | 1.0 | 5.0 | 0.00 | 0.00 | 0.00 | 40 | 1003.4 |
| 20260902231039 | 69 | 110 | 1.0 | 6.0 | 0.00 | 0.00 | 0.00 | 39 | 1003.7 |
| 20260902230530 | 69 | 221 | 2.0 | 6.0 | 0.00 | 0.00 | 0.00 | 41 | 1003.6 |
| 20260902230223 | 68 | 345 | 0.0 | 6.0 | 0.00 | 0.00 | 0.00 | 41 | 1003.7 |
| 20260902225542 | 69 | 352 | 2.0 | 6.0 | 0.00 | 0.00 | 0.00 | 41 | 1003.7 |
| 20260902225036 | 69 | 17 | 1.0 | 4.0 | 0.00 | 0.00 | 0.00 | 42 | 1003.8 |
| 20260902224626 | 69 | 311 | 1.0 | 4.0 | 0.00 | 0.00 | 0.00 | 42 | 1003.8 |
| 20260902224032 | 69 | 221 | 1.0 | 4.0 | 0.00 | 0.00 | 0.00 | 43 | 1003.9 |
| 20260902223542 | 69 | 88 | 1.0 | 5.0 | 0.00 | 0.00 | 0.00 | 43 | 1003.8 |
| 20260902223200 | 69 | 120 | 1.0 | 6.0 | 0.00 | 0.00 | 0.00 | 43 | 1003.9 |
| 20260902222549 | 69 | 232 | 1.0 | 8.0 | 0.00 | 0.00 | 0.00 | 43 | 1004.0 |
| 20260902222031 | 69 | 286 | 1.0 | 8.0 | 0.00 | 0.00 | 0.00 | 46 | 1004.0 |
| 20260902221645 | 69 | 44 | 3.0 | 8.0 | 0.00 | 0.00 | 0.00 | 45 | 1004.0 |
| 20260902221044 | 69 | 17 | 2.0 | 6.0 | 0.00 | 0.00 | 0.00 | 42 | 1004.0 |
| 20260902220528 | 69 | 352 | 1.0 | 6.0 | 0.00 | 0.00 | 0.00 | 43 | 1004.1 |
| 20260902220137 | 68 | 163 | 2.0 | 7.0 | 0.00 | 0.00 | 0.00 | 44 | 1004.3 |
| 20260902215532 | 68 | 40 | 1.0 | 6.0 | 0.00 | 0.00 | 0.00 | 45 | 1004.3 |
| 20260902215032 | 68 | 22 | 1.0 | 6.0 | 0.00 | 0.00 | 0.00 | 45 | 1004.7 |
| 20260902214659 | 69 | 29 | 1.0 | 8.0 | 0.00 | 0.00 | 0.00 | 46 | 1004.5 |
| 20260902214030 | 69 | 5 | 1.0 | 9.0 | 0.00 | 0.00 | 0.00 | 43 | 1004.9 |
| 20260902213542 | 70 | 18 | 2.0 | 9.0 | 0.00 | 0.00 | 0.00 | 43 | 1004.7 |
| 20260902213144 | 70 | 75 | 1.0 | 7.0 | 0.00 | 0.00 | 0.00 | 43 | 1004.7 |
| 20260902212537 | 70 | 76 | 1.0 | 6.0 | 0.00 | 0.00 | 0.00 | 44 | 1004.9 |
| 20260902212037 | 71 | 190 | 0.0 | 8.0 | 0.00 | 0.00 | 0.00 | 43 | 1005.0 |
| 20260902211618 | 71 | 107 | 2.0 | 6.0 | 0.00 | 0.00 | 0.00 | 42 | 1005.1 |
| 20260902211024 | 71 | 211 | 2.0 | 7.0 | 0.00 | 0.00 | 0.00 | 43 | 1005.3 |
| 20260902210540 | 71 | 53 | 3.0 | 7.0 | 0.00 | 0.00 | 0.00 | 43 | 1005.1 |
| 20260902210144 | 71 | 122 | 2.0 | 8.0 | 0.00 | 0.00 | 0.00 | 44 | 1005.0 |
| 20260902205538 | 71 | 34 | 3.0 | 10.0 | 0.00 | 0.00 | 0.00 | 43 | 1005.2 |
| 20260902205047 | 72 | 18 | 3.0 | 10.0 | 0.00 | 0.00 | 0.00 | 43 | 1005.1 |
| 20260902204610 | 72 | 47 | 2.0 | 9.0 | 0.00 | 0.00 | 0.00 | 43 | 1005.1 |
| 20260902204024 | 72 | 65 | 1.0 | 10.0 | 0.00 | 0.00 | 0.00 | 44 | 1004.9 |
| 20260902203531 | 71 | 71 | 2.0 | 10.0 | 0.00 | 0.00 | 0.00 | 45 | 1004.9 |
| 20260902203112 | 72 | 165 | 3.0 | 9.0 | 0.00 | 0.00 | 0.00 | 43 | 1005.1 |
| 20260902202524 | 72 | 300 | 2.0 | 10.0 | 0.00 | 0.00 | 0.00 | 44 | 1005.1 |
| 20260902202032 | 72 | 71 | 2.0 | 10.0 | 0.00 | 0.00 | 0.00 | 44 | 1005.5 |
| 20260902201627 | 73 | 331 | 1.0 | 7.0 | 0.00 | 0.00 | 0.00 | 44 | 1005.6 |
| 20260902201042 | 73 | 312 | 0.0 | 5.0 | 0.00 | 0.00 | 0.00 | 44 | 1005.5 |
| 20260902200546 | 72 | 360 | 2.0 | 6.0 | 0.00 | 0.00 | 0.00 | 43 | 1005.5 |
| 20260902200132 | 72 | 30 | 1.0 | 6.0 | 0.00 | 0.00 | 0.00 | 46 | 1005.6 |
| 20260902195527 | 72 | 26 | 1.0 | 8.0 | 0.00 | 0.00 | 0.00 | 45 | 1005.6 |
| 20260902195023 | 72 | 29 | 3.0 | 8.0 | 0.00 | 0.00 | 0.00 | 46 | 1005.8 |
| 20260902194637 | 71 | 9 | 2.0 | 6.0 | 0.00 | 0.00 | 0.00 | 46 | 1005.8 |
| 20260902194045 | 71 | 38 | 2.0 | 6.0 | 0.00 | 0.00 | 0.00 | 45 | 1005.7 |
| 20260902193526 | 71 | 19 | 1.0 | 6.0 | 0.00 | 0.00 | 0.00 | 48 | 1005.7 |
| 20260902193108 | 70 | 281 | 1.0 | 6.0 | 0.00 | 0.00 | 0.00 | 48 | 1005.8 |
| 20260902192546 | 70 | 352 | 3.0 | 7.0 | 0.00 | 0.00 | 0.00 | 49 | 1005.8 |
| 20260902192028 | 69 | 331 | 2.0 | 8.0 | 0.00 | 0.00 | 0.00 | 49 | 1005.6 |
| 20260902191625 | 69 | 151 | 3.0 | 9.0 | 0.00 | 0.00 | 0.00 | 48 | 1005.7 |
| 20260902191042 | 69 | 5 | 3.0 | 8.0 | 0.00 | 0.00 | 0.00 | 48 | 1005.7 |
| 20260902190524 | 69 | 352 | 2.0 | 5.0 | 0.00 | 0.00 | 0.00 | 49 | 1005.8 |
| 20260902190109 | 69 | 60 | 2.0 | 7.0 | 0.00 | 0.00 | 0.00 | 49 | 1006.0 |
| 20260902185530 | 70 | 46 | 1.0 | 10.0 | 0.00 | 0.00 | 0.00 | 49 | 1006.1 |
| 20260902185037 | 70 | 333 | 3.0 | 10.0 | 0.00 | 0.00 | 0.00 | 48 | 1005.9 |
| 20260902184625 | 71 | 52 | 3.0 | 5.0 | 0.00 | 0.00 | 0.00 | 48 | 1005.8 |
| 20260902184047 | 70 | 57 | 1.0 | 6.0 | 0.00 | 0.00 | 0.00 | 54 | 1005.8 |
| 20260902183523 | 69 | 67 | 3.0 | 6.0 | 0.00 | 0.00 | 0.00 | 51 | 1005.8 |
| 20260902183136 | 69 | 27 | 2.0 | 6.0 | 0.00 | 0.00 | 0.00 | 52 | 1005.7 |
| 20260902182532 | 70 | 128 | 1.0 | 5.0 | 0.00 | 0.00 | 0.00 | 53 | 1005.7 |
| 20260902182037 | 69 | 67 | 2.0 | 7.0 | 0.00 | 0.00 | 0.00 | 55 | 1005.6 |
| 20260902181616 | 69 | 29 | 2.0 | 7.0 | 0.00 | 0.00 | 0.00 | 56 | 1005.7 |
| 20260902181033 | 68 | 232 | 1.0 | 6.0 | 0.00 | 0.00 | 0.00 | 61 | 1005.8 |
| 20260902180525 | 68 | 126 | 2.0 | 6.0 | 0.00 | 0.00 | 0.00 | 58 | 1005.9 |
| 20260902180145 | 67 | 104 | 1.0 | 7.0 | 0.00 | 0.00 | 0.00 | 60 | 1005.8 |
| 20260902175525 | 66 | 213 | 1.0 | 5.0 | 0.00 | 0.00 | 0.00 | 60 | 1005.9 |
| 20260902175035 | 66 | 177 | 1.0 | 4.0 | 0.00 | 0.00 | 0.00 | 61 | 1005.8 |
| 20260902174624 | 65 | 119 | 0.0 | 3.0 | 0.00 | 0.00 | 0.00 | 62 | 1005.6 |
| 20260902174036 | 65 | 277 | 0.0 | 5.0 | 0.00 | 0.00 | 0.00 | 63 | 1005.6 |
| 20260902173528 | 65 | 105 | 0.0 | 5.0 | 0.00 | 0.00 | 0.00 | 64 | 1005.5 |
| 20260902173133 | 65 | 89 | 0.0 | 3.0 | 0.00 | 0.00 | 0.00 | 64 | 1005.6 |
| 20260902172532 | 65 | 338 | 1.0 | 3.0 | 0.00 | 0.00 | 0.00 | 67 | 1005.6 |
| 20260902172024 | 64 | 22 | 0.0 | 3.0 | 0.00 | 0.00 | 0.00 | 69 | 1005.8 |
| 20260902171618 | 64 | 163 | 0.0 | 4.0 | 0.00 | 0.00 | 0.00 | 69 | 1005.8 |
| 20260902171047 | 64 | 342 | 0.0 | 4.0 | 0.00 | 0.00 | 0.00 | 67 | 1005.8 |
| 20260902170545 | 64 | 352 | 0.0 | 3.0 | 0.00 | 0.00 | 0.00 | 68 | 1005.7 |
| 20260902170131 | 65 | 17 | 0.0 | 3.0 | 0.00 | 0.00 | 0.00 | 68 | 1005.7 |
| 20260902165533 | 64 | 189 | 0.0 | 3.0 | 0.00 | 0.00 | 0.00 | 70 | 1005.8 |
| 20260902165028 | 64 | 54 | 1.0 | 3.0 | 0.00 | 0.00 | 0.00 | 71 | 1005.7 |
| 20260902164631 | 63 | 5 | 0.0 | 0.0 | 0.00 | 0.00 | 0.00 | 74 | 1005.5 |
| 20260902164042 | 62 | 340 | 0.0 | 2.0 | 0.00 | 0.00 | 0.00 | 72 | 1005.7 |
| 20260902163528 | 62 | 340 | 0.0 | 2.0 | 0.00 | 0.00 | 0.00 | 72 | 1005.6 |
| 20260902163135 | 62 | 17 | 0.0 | 3.0 | 0.00 | 0.00 | 0.00 | 74 | 1005.8 |
| 20260902162528 | 61 | 5 | 1.0 | 3.0 | 0.00 | 0.00 | 0.00 | 72 | 1005.5 |
| 20260902162034 | 61 | 336 | 0.0 | 0.0 | 0.00 | 0.00 | 0.00 | 74 | 1005.8 |
| 20260902161545 | 61 | 115 | 0.0 | 0.0 | 0.00 | 0.00 | 0.00 | 75 | 1005.9 |
| 20260902161038 | 61 | 115 | 0.0 | 0.0 | 0.00 | 0.00 | 0.00 | 73 | 1006.0 |
| 20260902160525 | 60 | 124 | 0.0 | 0.0 | 0.00 | 0.00 | 0.00 | 76 | 1006.0 |
| 20260902160143 | 60 | 123 | 0.0 | 0.0 | 0.00 | 0.00 | 0.00 | 76 | 1006.0 |
| 20260902155525 | 60 | 51 | 0.0 | 0.0 | 0.00 | 0.00 | 0.00 | 78 | 1006.1 |
| 20260902155029 | 59 | 170 | 0.0 | 0.0 | 0.00 | 0.00 | 0.00 | 80 | 1006.2 |
| 20260902154632 | 58 | 159 | 0.0 | 0.0 | 0.00 | 0.00 | 0.00 | 81 | 1006.2 |
| 20260902154023 | 58 | 152 | 0.0 | 2.0 | 0.00 | 0.00 | 0.00 | 82 | 1006.2 |
| 20260902153519 | 58 | 154 | 0.0 | 2.0 | 0.00 | 0.00 | 0.00 | 83 | 1006.2 |
| 20260902153103 | 58 | 207 | 0.0 | 2.0 | 0.00 | 0.00 | 0.00 | 84 | 1006.0 |
| 20260902152525 | 58 | 96 | 0.0 | 0.0 | 0.00 | 0.00 | 0.00 | 86 | 1006.0 |
| 20260902152031 | 58 | 96 | 0.0 | 3.0 | 0.00 | 0.00 | 0.00 | 87 | 1006.1 |
| 20260902151559 | 57 | 229 | 0.0 | 3.0 | 0.00 | 0.00 | 0.00 | 81 | 1006.1 |
| 20260902151042 | 57 | 252 | 0.0 | 3.0 | 0.00 | 0.00 | 0.00 | 84 | 1006.0 |
| 20260902150522 | 57 | 244 | 1.0 | 3.0 | 0.00 | 0.00 | 0.00 | 86 | 1006.1 |
| 20260902150106 | 56 | 271 | 0.0 | 1.0 | 0.00 | 0.00 | 0.00 | 89 | 1006.2 |
| 20260902145525 | 56 | 285 | 0.0 | 4.0 | 0.00 | 0.00 | 0.00 | 88 | 1006.2 |
| 20260902145042 | 56 | 285 | 2.0 | 4.0 | 0.00 | 0.00 | 0.00 | 88 | 1006.3 |
| 20260902144632 | 56 | 224 | 0.0 | 2.0 | 0.00 | 0.00 | 0.00 | 87 | 1006.9 |
| 20260902144037 | 56 | 288 | 1.0 | 2.0 | 0.00 | 0.00 | 0.00 | 87 | 1006.8 |
| 20260902143532 | 56 | 174 | 0.0 | 2.0 | 0.00 | 0.00 | 0.00 | 87 | 1006.7 |
| 20260902143124 | 56 | 71 | 0.0 | 2.0 | 0.00 | 0.00 | 0.00 | 87 | 1006.3 |
| 20260902142518 | 56 | 128 | 0.0 | 2.0 | 0.00 | 0.00 | 0.00 | 87 | 1006.5 |
| 20260902142020 | 56 | 73 | 0.0 | 5.0 | 0.00 | 0.00 | 0.00 | 87 | 1006.3 |
| 20260902141608 | 55 | 132 | 0.0 | 4.0 | 0.00 | 0.00 | 0.00 | 88 | 1006.4 |
| 20260902141038 | 55 | 233 | 2.0 | 3.0 | 0.00 | 0.00 | 0.00 | 87 | 1006.1 |
| 20260902140538 | 55 | 220 | 1.0 | 3.0 | 0.00 | 0.00 | 0.00 | 86 | 1005.8 |
| 20260902140139 | 56 | 254 | 1.0 | 3.0 | 0.00 | 0.00 | 0.00 | 86 | 1006.4 |
| 20260902135524 | 56 | 227 | 0.0 | 0.0 | 0.00 | 0.00 | 0.00 | 85 | 1006.4 |
| 20260902135023 | 55 | 228 | 0.0 | 0.0 | 0.00 | 0.00 | 0.00 | 84 | 1006.6 |
| 20260902134642 | 55 | 184 | 0.0 | 0.0 | 0.00 | 0.00 | 0.00 | 84 | 1006.7 |
| 20260902134025 | 55 | 76 | 0.0 | 3.0 | 0.00 | 0.00 | 0.00 | 85 | 1006.8 |
| 20260902133525 | 55 | 76 | 0.0 | 3.0 | 0.00 | 0.00 | 0.00 | 85 | 1006.5 |
| 20260902133100 | 55 | 254 | 0.0 | 3.0 | 0.00 | 0.00 | 0.00 | 85 | 1006.2 |
| 20260902132526 | 55 | 251 | 0.0 | 2.0 | 0.00 | 0.00 | 0.00 | 85 | 1006.1 |
| 20260902132039 | 55 | 259 | 0.0 | 2.0 | 0.00 | 0.00 | 0.00 | 85 | 1005.9 |
| 20260902131542 | 55 | 260 | 0.0 | 2.0 | 0.00 | 0.00 | 0.00 | 86 | 1005.8 |
| 20260902131027 | 55 | 263 | 1.0 | 4.0 | 0.00 | 0.00 | 0.00 | 85 | 1005.8 |
| 20260902130528 | 55 | 265 | 0.0 | 4.0 | 0.00 | 0.00 | 0.00 | 85 | 1005.9 |
| 20260902130130 | 55 | 223 | 3.0 | 4.0 | 0.00 | 0.00 | 0.00 | 85 | 1006.0 |
| 20260902125530 | 55 | 253 | 1.0 | 3.0 | 0.00 | 0.00 | 0.00 | 85 | 1006.2 |
| 20260902125051 | 55 | 241 | 1.0 | 3.0 | 0.00 | 0.00 | 0.00 | 85 | 1006.3 |
| 20260902124624 | 55 | 228 | 0.0 | 2.0 | 0.00 | 0.00 | 0.00 | 85 | 1006.5 |
| 20260902124035 | 55 | 228 | 0.0 | 2.0 | 0.00 | 0.00 | 0.00 | 85 | 1006.6 |
| 20260902123525 | 55 | 234 | 0.0 | 2.0 | 0.00 | 0.00 | 0.00 | 85 | 1006.5 |
| 20260902123121 | 55 | 228 | 0.0 | 3.0 | 0.00 | 0.00 | 0.00 | 85 | 1006.4 |
| 20260902122531 | 55 | 224 | 2.0 | 3.0 | 0.00 | 0.00 | 0.00 | 85 | 1006.4 |
| 20260902122040 | 55 | 219 | 2.0 | 3.0 | 0.00 | 0.00 | 0.00 | 86 | 1006.0 |
| 20260902121601 | 55 | 214 | 1.0 | 3.0 | 0.00 | 0.00 | 0.00 | 85 | 1006.1 |
| 20260902121021 | 55 | 238 | 0.0 | 4.0 | 0.00 | 0.00 | 0.00 | 85 | 1006.0 |
| 20260902120526 | 55 | 261 | 1.0 | 4.0 | 0.00 | 0.00 | 0.00 | 85 | 1005.9 |
| 20260902120125 | 55 | 222 | 0.0 | 3.0 | 0.00 | 0.00 | 0.00 | 86 | 1005.9 |
| 20260902115525 | 55 | 234 | 1.0 | 3.0 | 0.00 | 0.00 | 0.00 | 86 | 1006.0 |
| 20260902115019 | 55 | 221 | 0.0 | 4.0 | 0.00 | 0.00 | 0.00 | 86 | 1006.0 |
| 20260902114625 | 56 | 200 | 1.0 | 4.0 | 0.00 | 0.00 | 0.00 | 86 | 1006.0 |
| 20260902114036 | 56 | 239 | 2.0 | 4.0 | 0.00 | 0.00 | 0.00 | 86 | 1006.0 |
| 20260902113532 | 55 | 301 | 0.0 | 3.0 | 0.00 | 0.00 | 0.00 | 87 | 1006.4 |
| 20260902113123 | 55 | 271 | 1.0 | 3.0 | 0.00 | 0.00 | 0.00 | 87 | 1006.4 |
| 20260902112525 | 55 | 229 | 1.0 | 3.0 | 0.00 | 0.00 | 0.00 | 87 | 1006.1 |
| 20260902112025 | 55 | 224 | 1.0 | 3.0 | 0.00 | 0.00 | 0.00 | 88 | 1006.1 |
| 20260902111639 | 55 | 232 | 1.0 | 3.0 | 0.00 | 0.00 | 0.00 | 88 | 1006.1 |
| 20260902111046 | 55 | 244 | 1.0 | 3.0 | 0.00 | 0.00 | 0.00 | 87 | 1006.2 |
| 20260902110530 | 55 | 242 | 1.0 | 4.0 | 0.00 | 0.00 | 0.00 | 87 | 1006.3 |
| 20260902110036 | 55 | 217 | 3.0 | 4.0 | 0.00 | 0.00 | 0.00 | 87 | 1006.2 |
| 20260902105523 | 55 | 227 | 2.0 | 3.0 | 0.00 | 0.00 | 0.00 | 87 | 1006.2 |
| 20260902105025 | 55 | 232 | 2.0 | 4.0 | 0.00 | 0.00 | 0.00 | 87 | 1006.3 |
| 20260902104643 | 55 | 249 | 1.0 | 4.0 | 0.00 | 0.00 | 0.00 | 88 | 1006.2 |
| 20260902104021 | 55 | 239 | 1.0 | 4.0 | 0.00 | 0.00 | 0.00 | 88 | 1006.4 |
| 20260902103524 | 55 | 183 | 2.0 | 4.0 | 0.00 | 0.00 | 0.00 | 88 | 1006.4 |
| 20260902103154 | 56 | 225 | 2.0 | 4.0 | 0.00 | 0.00 | 0.00 | 88 | 1006.4 |
| 20260902102524 | 56 | 245 | 1.0 | 3.0 | 0.00 | 0.00 | 0.00 | 88 | 1006.5 |
| 20260902102029 | 56 | 230 | 2.0 | 4.0 | 0.00 | 0.00 | 0.00 | 88 | 1006.7 |
| 20260902101633 | 56 | 215 | 2.0 | 3.0 | 0.00 | 0.00 | 0.00 | 89 | 1006.6 |
| 20260902101040 | 56 | 252 | 0.0 | 4.0 | 0.00 | 0.00 | 0.00 | 89 | 1006.6 |
| 20260902100521 | 56 | 223 | 2.0 | 4.0 | 0.00 | 0.00 | 0.00 | 89 | 1006.7 |
| 20260902100119 | 56 | 240 | 2.0 | 4.0 | 0.00 | 0.00 | 0.00 | 90 | 1006.9 |
| 20260902095520 | 56 | 260 | 1.0 | 3.0 | 0.00 | 0.00 | 0.00 | 90 | 1006.9 |
| 20260902095043 | 56 | 229 | 1.0 | 3.0 | 0.00 | 0.00 | 0.00 | 90 | 1007.0 |
| 20260902094615 | 56 | 227 | 2.0 | 3.0 | 0.00 | 0.00 | 0.00 | 90 | 1007.1 |
| 20260902094030 | 56 | 244 | 1.0 | 3.0 | 0.00 | 0.00 | 0.00 | 90 | 1007.1 |
| 20260902093524 | 56 | 256 | 1.0 | 3.0 | 0.00 | 0.00 | 0.00 | 89 | 1007.1 |
| 20260902093138 | 56 | 241 | 1.0 | 4.0 | 0.00 | 0.00 | 0.00 | 88 | 1007.2 |
| 20260902092532 | 57 | 201 | 1.0 | 4.0 | 0.00 | 0.00 | 0.00 | 87 | 1007.3 |
| 20260902092037 | 57 | 227 | 1.0 | 3.0 | 0.00 | 0.00 | 0.00 | 86 | 1007.2 |
| 20260902091630 | 58 | 224 | 1.0 | 3.0 | 0.00 | 0.00 | 0.00 | 85 | 1007.4 |
| 20260902091031 | 58 | 214 | 1.0 | 3.0 | 0.00 | 0.00 | 0.00 | 82 | 1007.4 |
| 20260902090518 | 58 | 198 | 0.0 | 2.0 | 0.00 | 0.00 | 0.00 | 80 | 1007.6 |
| 20260902090123 | 58 | 205 | 0.0 | 3.0 | 0.00 | 0.00 | 0.00 | 81 | 1007.6 |
| 20260902085547 | 58 | 223 | 1.0 | 3.0 | 0.00 | 0.00 | 0.00 | 81 | 1007.6 |
| 20260902085036 | 58 | 232 | 0.0 | 0.0 | 0.00 | 0.00 | 0.00 | 81 | 1007.5 |
| 20260902084552 | 58 | 241 | 0.0 | 6.0 | 0.00 | 0.00 | 0.00 | 82 | 1007.4 |
| 20260902084024 | 58 | 307 | 1.0 | 6.0 | 0.00 | 0.00 | 0.00 | 81 | 1007.4 |
| 20260902083520 | 58 | 225 | 1.0 | 3.0 | 0.00 | 0.00 | 0.00 | 82 | 1007.5 |
| 20260902083133 | 58 | 198 | 0.0 | 1.0 | 0.00 | 0.00 | 0.00 | 82 | 1007.5 |
| 20260902082527 | 58 | 225 | 0.0 | 1.0 | 0.00 | 0.00 | 0.00 | 83 | 1007.5 |
| 20260902082028 | 58 | 240 | 0.0 | 0.0 | 0.00 | 0.00 | 0.00 | 83 | 1007.6 |
| 20260902081558 | 58 | 235 | 0.0 | 3.0 | 0.00 | 0.00 | 0.00 | 83 | 1007.5 |
| 20260902081040 | 58 | 250 | 0.0 | 3.0 | 0.00 | 0.00 | 0.00 | 83 | 1007.6 |
| 20260902080522 | 57 | 192 | 0.0 | 3.0 | 0.00 | 0.00 | 0.00 | 84 | 1007.6 |
| 20260902080135 | 57 | 213 | 1.0 | 3.0 | 0.00 | 0.00 | 0.00 | 84 | 1007.6 |
| 20260902075535 | 57 | 229 | 0.0 | 0.0 | 0.00 | 0.00 | 0.00 | 85 | 1007.4 |
| 20260902075031 | 57 | 238 | 0.0 | 0.0 | 0.00 | 0.00 | 0.00 | 85 | 1007.5 |
| 20260902074637 | 57 | 236 | 0.0 | 0.0 | 0.00 | 0.00 | 0.00 | 86 | 1007.5 |
| 20260902074041 | 57 | 236 | 0.0 | 0.0 | 0.00 | 0.00 | 0.00 | 86 | 1007.5 |
| 20260902073531 | 57 | 271 | 0.0 | 0.0 | 0.00 | 0.00 | 0.00 | 86 | 1007.5 |
| 20260902073113 | 57 | 271 | 0.0 | 0.0 | 0.00 | 0.00 | 0.00 | 86 | 1007.5 |
| 20260902072518 | 57 | 271 | 0.0 | 0.0 | 0.00 | 0.00 | 0.00 | 86 | 1007.4 |
| 20260902072044 | 57 | 271 | 0.0 | 0.0 | 0.00 | 0.00 | 0.00 | 85 | 1007.3 |
| 20260902071553 | 57 | 271 | 0.0 | 0.0 | 0.00 | 0.00 | 0.00 | 86 | 1007.3 |
| 20260902071030 | 57 | 271 | 0.0 | 2.0 | 0.00 | 0.00 | 0.00 | 85 | 1007.4 |
| 20260902070546 | 57 | 272 | 0.0 | 3.0 | 0.00 | 0.00 | 0.00 | 86 | 1007.4 |
| 20260902070127 | 57 | 275 | 1.0 | 3.0 | 0.00 | 0.00 | 0.00 | 85 | 1007.4 |
| 20260902065524 | 58 | 253 | 0.0 | 0.0 | 0.00 | 0.00 | 0.00 | 85 | 1007.4 |
| 20260902065030 | 58 | 249 | 0.0 | 2.0 | 0.00 | 0.00 | 0.00 | 84 | 1007.4 |
| 20260902064634 | 58 | 278 | 0.0 | 2.0 | 0.00 | 0.00 | 0.00 | 83 | 1007.5 |
| 20260902064024 | 59 | 304 | 0.0 | 2.0 | 0.00 | 0.00 | 0.00 | 82 | 1007.5 |
| 20260902063524 | 59 | 303 | 0.0 | 3.0 | 0.00 | 0.00 | 0.00 | 81 | 1007.5 |
| 20260902063124 | 59 | 266 | 1.0 | 3.0 | 0.00 | 0.00 | 0.00 | 80 | 1007.5 |
| 20260902062539 | 59 | 261 | 0.0 | 3.0 | 0.00 | 0.00 | 0.00 | 81 | 1007.4 |
| 20260902062026 | 60 | 261 | 0.0 | 3.0 | 0.00 | 0.00 | 0.00 | 80 | 1007.4 |
| 20260902061602 | 60 | 256 | 0.0 | 3.0 | 0.00 | 0.00 | 0.00 | 77 | 1007.5 |
| 20260902061021 | 60 | 308 | 1.0 | 3.0 | 0.00 | 0.00 | 0.00 | 76 | 1007.5 |
| 20260902060530 | 60 | 252 | 2.0 | 3.0 | 0.00 | 0.00 | 0.00 | 75 | 1007.6 |
| 20260902060125 | 60 | 248 | 0.0 | 3.0 | 0.00 | 0.00 | 0.00 | 75 | 1007.6 |
| 20260902055536 | 60 | 237 | 0.0 | 2.0 | 0.00 | 0.00 | 0.00 | 75 | 1007.6 |
| 20260902055024 | 61 | 295 | 0.0 | 3.0 | 0.00 | 0.00 | 0.00 | 75 | 1007.5 |
| 20260902054603 | 61 | 253 | 1.0 | 3.0 | 0.00 | 0.00 | 0.00 | 73 | 1007.5 |
| 20260902054025 | 61 | 252 | 1.0 | 3.0 | 0.00 | 0.00 | 0.00 | 72 | 1007.7 |
| 20260902053518 | 61 | 319 | 1.0 | 3.0 | 0.00 | 0.00 | 0.00 | 72 | 1007.7 |
| 20260902053133 | 61 | 264 | 1.0 | 3.0 | 0.00 | 0.00 | 0.00 | 73 | 1007.7 |